Regional Weather Roundup
Issued by NWS Kansas City/Pleasant Hill, MO

Home | Current Version | Previous Version | Text Only | Print | Product List | Glossary On
Versions: 1 2 3 4 5 6 7 8 9 10 11 12 13 14 15 16 17 18 19 20 21 22 23 24 25 26 27
000
ASUS43 KEAX 250910
RWREAX

WEATHER ROUNDUP FOR EASTERN KANSAS AND NORTHWEST MISSOURI
NATIONAL WEATHER SERVICE KANSAS CITY/PLEASANT HILL MO
400 AM CDT SAT MAR 25 2017

KSZ040-057-103>105-MOZ028-029-037-043-251000-
...KANSAS CITY METROPOLITAN AREA...

CITY           SKY/WX    TMP DP  RH WIND       PRES   REMARKS
K.C. INTL      CLOUDY    52  52 100 NW6       29.75F FOG
K.C. DOWNTOWN  CLOUDY    57  52  83 E8        29.74S
LEES SUMMIT    PTCLDY    51  48  89 E7        29.76S
OLATHE - IXD   CLOUDY    51  50  96 NW10      29.76R
OLATHE - OJC   CLOUDY    54  54 100 NW5       29.74S FOG
LAWRENCE       CLOUDY    48  48 100 W9        29.77S

$$

MOZ001>008-011>017-020>025-030>033-038>040-044>046-053-054-251000-
...NORTHERN AND CENTRAL MISSOURI...

CITY           SKY/WX    TMP DP  RH WIND       PRES   REMARKS
ST. JOSEPH     RAIN      48  48 100 N12       29.78F FOG
MOSBY          MOSUNNY   55  52  88 E5        29.76S
WARRENSBURG    CLOUDY    52  46  82 E7        29.77S
WHITEMAN AFB   CLOUDY    53  53 100 E5        29.76F
CLINTON        CLOUDY    54  48  82 SE3       29.77F
SEDALIA        CLOUDY    54  50  86 E5        29.79S
WARSAW         NOT AVBL
CHILLICOTHE      N/A     54  53  97 N5        29.79F
KIRKSVILLE     CLOUDY    56  55  97 NE8       29.80F

$$

MOZ041-047>049-056>058-063>065-088>090-097-251000-
...EASTERN AND SOUTHERN MISSOURI...

CITY           SKY/WX    TMP DP  RH WIND       PRES   REMARKS
ST. LOUIS INTL LGT RAIN  60  57  89 SE7       29.83F
SPIRIT OF STL  LGT RAIN  58  58 100 SE8       29.82F
COLUMBIA       CLOUDY    56  56 100 S3        29.78F
JEFFERSON CITY CLOUDY    57  54  89 SE8       29.78S
ROLLA          CLOUDY    53  52  96 SE12      29.78S
OSAGE BEACH    CLOUDY   N/A N/A N/A SW6       29.81R
SPRINGFIELD    PTCLDY    52  50  93 SE13      29.76F
BRANSON        CLOUDY    50  50 100 E6        29.78F
JOPLIN         CLEAR     53  52  96 E6        29.73F
WEST PLAINS    CLOUDY    53  52  96 SE6       29.86R

$$

IAZ060-094-KSZ022-034>040-054-083-096-NEZ052-066-093-251000-
...KANSAS...SOUTHEAST NEBRASKA AND IOWA...

CITY           SKY/WX    TMP DP  RH WIND       PRES   REMARKS
TOPEKA         CLOUDY    47  47 100 NW10G21   29.79F FOG
MANHATTAN      LGT RAIN  44  42  93 N6        29.87S FOG
EMPORIA        LGT RAIN  45  45 100 NW15      29.79F FOG
CHANUTE        CLOUDY    53  51  93 W9        29.76F
WICHITA        LGT RAIN  43  42  97 NW21G30   29.85F WCI  34
OMAHA          LGT RAIN  42  37  82 N17       29.93R WCI  34
LINCOLN        CLOUDY    42  40  92 N18       29.95R WCI  34
FALLS CITY     LGT RAIN  44  43  96 N10       29.83S FOG
LAMONI         FOG       47  46  97 NE13      29.82F VSB 1/4
DES MOINES     CLOUDY    43  41  93 NE14G24   29.90F

$$





USA.gov is the U.S. government's official web portal to all federal, state and local government web resources and services.